Change the Weather History Date:

Thursday, April 3, 2014

  Actual Average Record
Temperature  
Mean Temperature 36 °F 41 °F  
Max Temperature 49 °F 54 °F 75 °F (1990)
Min Temperature 22 °F 28 °F 11 °F (1945)
Degree Days  
Heating Degree Days 29 24  
Month to date heating degree days 89 72  
Since 1 July heating degree days 6691 7017  
Cooling Degree Days 0 0  
Month to date cooling degree days 0 0  
Year to date cooling degree days 0 0  
Moisture  
Dew Point 20 °F    
Average Humidity 54    
Maximum Humidity 81    
Minimum Humidity 26    
Precipitation  
Precipitation 0.00 in 0.02 in 0.12 in (1958)
Month to date precipitation 0.58 0.06  
Year to date precipitation 2.26 1.90  
Sea Level Pressure  
Sea Level Pressure 30.05 in    
Wind  
Wind Speed 3 mph (SSE)    
Max Wind Speed 10 mph    
Max Gust Speed 12 mph    
Visibility 10 miles    
Events      
T = Trace of Precipitation, MM = Missing Value Source: NWS Daily Summary

Daily Weather History Graph

Daily Weather History Graph

Search for Another Location

Airport or City:

Trip Planner

Search our weather history database for the weather conditions in past years. The results will help you decide how hot, cold, wet, or windy it might be!

Date:

Astronomy

Apr. 03, 2014 Rise Set
Actual Time 7:14 AM MDT 8:06 PM MDT
Civil Twilight 6:44 AM MDT 8:36 PM MDT
Nautical Twilight 6:09 AM MDT 9:11 PM MDT
Astronomical Twilight 5:32 AM MDT 9:48 PM MDT
Moon 9:38 AM MDT (4/3) No Moon Set
Length of Visible Light 13h 51m
Length of Day
12h 52m
Waxing Crescent, 18% of the Moon is Illuminated
Apr 3
Waxing Crescent
Apr 7
First Quarter
Apr 15
Full
Apr 22
Last Quarter
Apr 29
New

Hourly Weather History & Observations

Time (MDT) Temp. Windchill Dew Point Humidity Pressure Visibility Wind Dir Wind Speed Gust Speed Precip Events Conditions
12:55 AM 28.0 °F - 21.0 °F 75% 30.01 in 10.0 mi Calm Calm - N/A   Partly Cloudy
1:55 AM 27.0 °F 21.6 °F 19.9 °F 75% 30.03 in 10.0 mi WSW 4.6 mph - N/A   Clear
2:55 AM 26.1 °F 19.4 °F 19.0 °F 75% 30.04 in 10.0 mi ESE 5.8 mph - N/A   Clear
3:55 AM 26.1 °F - 19.0 °F 75% 30.04 in 10.0 mi Calm Calm - N/A   Clear
4:55 AM 24.1 °F 18.2 °F 17.1 °F 75% 30.05 in 10.0 mi NW 4.6 mph - N/A   Clear
5:55 AM 24.1 °F - 18.0 °F 77% 30.07 in 10.0 mi Calm Calm - N/A   Clear
6:55 AM 23.0 °F - 16.0 °F 74% 30.08 in 10.0 mi Calm Calm - N/A   Clear
7:55 AM 23.0 °F - 18.0 °F 81% 30.12 in 10.0 mi Calm Calm - N/A   Clear
8:55 AM 26.1 °F - 19.0 °F 75% 30.12 in 10.0 mi Calm Calm - N/A   Clear
9:55 AM 28.0 °F 21.7 °F 19.0 °F 69% 30.13 in 10.0 mi NW 5.8 mph - N/A   Clear
10:55 AM 32.0 °F - 21.0 °F 64% 30.12 in 10.0 mi Calm Calm - N/A   Clear
11:55 AM 34.0 °F 31.0 °F 21.9 °F 61% 30.11 in 10.0 mi North 3.5 mph - N/A   Clear
12:55 PM 37.9 °F - 23.0 °F 55% 30.09 in 10.0 mi Calm Calm - N/A   Clear
1:55 PM 41.0 °F 39.0 °F 24.1 °F 51% 30.06 in 10.0 mi Variable 3.5 mph - N/A   Clear
2:55 PM 43.0 °F 41.3 °F 24.1 °F 47% 30.03 in 10.0 mi SSE 3.5 mph - N/A   Clear
3:55 PM 46.9 °F - 25.0 °F 42% 29.99 in 10.0 mi Variable 4.6 mph - N/A   Clear
4:55 PM 48.0 °F - 19.9 °F 33% 29.98 in 10.0 mi SE 5.8 mph - N/A   Clear
5:55 PM 48.0 °F - 16.0 °F 28% 29.97 in 10.0 mi South 6.9 mph - N/A   Clear
6:55 PM 46.9 °F - 17.1 °F 30% 29.97 in 10.0 mi SSE 6.9 mph - N/A   Clear
7:55 PM 44.1 °F 41.5 °F 16.0 °F 32% 29.99 in 10.0 mi SSE 4.6 mph - N/A   Clear
9:55 PM 37.9 °F - 21.0 °F 51% 30.02 in 10.0 mi Calm Calm - N/A   Clear
10:55 PM 36.0 °F - 23.0 °F 59% 30.01 in 10.0 mi Calm Calm - N/A   Clear
11:55 PM 34.0 °F - 21.9 °F 61% 30.02 in 10.0 mi Calm Calm - N/A   Clear